Champaign, IL

11:14 AM CDT on May 22, 2018 (GMT -0500)
Univ Of Illinois-Willard

Weather History for KCMI - July, 2013

Change the Weather History Date:

Wednesday, July 17, 2013

  Actual Average Record
Temperature  
Mean Temperature 82 °F 74 °F  
Max Temperature 93 °F 84 °F 96 °F (2012)
Min Temperature 70 °F 64 °F 53 °F (2014)
Degree Days  
Heating Degree Days 0 0  
Month to date heating degree days 0 0  
Since 1 June heating degree days 13 17  
Since 1 July heating degree days 0 0  
Cooling Degree Days 17 9  
Month to date cooling degree days 160 162  
Year to date cooling degree days 511 477  
Since 1 June cooling degree days 379 385  
Growing Degree Days 30 (Base 50)    
Moisture  
Dew Point 72 °F    
Average Humidity 75    
Maximum Humidity 97    
Minimum Humidity 52    
Precipitation  
Precipitation 0.00 in 0.17 in 1.49 in (1950)
Month to date precipitation 1.20 2.40  
Year to date precipitation 20.13 21.73  
Sea Level Pressure  
Sea Level Pressure 30.28 in    
Wind  
Wind Speed 2 mph (WSW)    
Max Wind Speed 6 mph    
Max Gust Speed 15 mph    
Visibility 10 miles    
Events      
T = Trace of Precipitation, MM = Missing Value Source: NWS Daily Summary

Daily Weather History Graph

Daily Weather History Graph

Search for Another Location

Airport or City:

Astronomy

Jul. 17, 2013 Rise Set
Actual Time 5:38 AM CDT 8:19 PM CDT
Civil Twilight 5:06 AM CDT 8:51 PM CDT
Nautical Twilight 4:27 AM CDT 9:30 PM CDT
Astronomical Twilight 3:42 AM CDT 10:15 PM CDT
Moon 3:08 PM CDT (7/17) 12:45 AM CDT (7/17)
Length of Visible Light 15h 44m
Length of Day
14h 41m
Waxing Gibbous, 67% of the Moon is Illuminated
Jul 17
Waxing Gibbous
Jul 22
Full
Jul 29
Last Quarter
Aug 6
New
Aug 14
First Quarter

Hourly Weather History & Observations

Time (CDT) Temp. Heat Index Dew Point Humidity Pressure Visibility Wind Dir Wind Speed Gust Speed Precip Events Conditions
12:53 AM 73.0 °F - 70.0 °F 90% 30.29 in 10.0 mi South 3.5 mph - N/A   Clear
1:53 AM 73.0 °F - 70.0 °F 90% 30.29 in 10.0 mi South 3.5 mph - N/A   Clear
2:53 AM 72.0 °F - 70.0 °F 93% 30.30 in 10.0 mi Calm Calm - N/A   Clear
3:53 AM 71.1 °F - 69.1 °F 93% 30.30 in 10.0 mi Calm Calm - N/A   Clear
4:53 AM 71.1 °F - 68.0 °F 90% 30.31 in 10.0 mi Calm Calm - N/A   Clear
5:53 AM 70.0 °F - 68.0 °F 93% 30.32 in 9.0 mi Calm Calm - N/A   Clear
6:26 AM 73.4 °F - 69.8 °F 88% 30.34 in 7.0 mi Calm Calm - N/A   Scattered Clouds
6:53 AM 75.9 °F - 72.0 °F 87% 30.33 in 10.0 mi Calm Calm - N/A   Clear
7:53 AM 81.0 °F 85.8 °F 73.0 °F 77% 30.34 in 10.0 mi West 3.5 mph - N/A   Clear
8:53 AM 84.0 °F 91.9 °F 75.0 °F 74% 30.34 in 10.0 mi Calm Calm - N/A   Clear
9:53 AM 87.1 °F 92.8 °F 71.1 °F 59% 30.34 in 10.0 mi Calm Calm - N/A   Partly Cloudy
10:53 AM 88.0 °F 95.6 °F 73.0 °F 61% 30.33 in 10.0 mi West 3.5 mph - N/A   Scattered Clouds
11:53 AM 89.1 °F 95.0 °F 71.1 °F 55% 30.32 in 10.0 mi Variable 3.5 mph - N/A   Partly Cloudy
12:53 PM 90.0 °F 95.4 °F 70.0 °F 52% 30.31 in 10.0 mi Calm Calm - N/A   Partly Cloudy
1:53 PM 89.1 °F 97.0 °F 73.0 °F 59% 30.29 in 10.0 mi SSW 3.5 mph - N/A   Scattered Clouds
2:53 PM 91.0 °F 97.6 °F 71.1 °F 52% 30.27 in 10.0 mi Calm Calm - N/A   Scattered Clouds
3:53 PM 91.0 °F 98.2 °F 72.0 °F 53% 30.25 in 10.0 mi WSW 4.6 mph - N/A   Partly Cloudy
4:53 PM 91.0 °F 97.6 °F 71.1 °F 52% 30.23 in 10.0 mi Calm Calm - N/A   Clear
5:53 PM 90.0 °F 97.9 °F 73.0 °F 57% 30.22 in 10.0 mi Calm Calm - N/A   Clear
6:53 PM 88.0 °F 96.5 °F 73.9 °F 63% 30.21 in 10.0 mi WNW 3.5 mph - N/A   Clear
7:53 PM 84.0 °F 91.9 °F 75.0 °F 74% 30.21 in 10.0 mi West 3.5 mph - N/A   Clear
8:53 PM 81.0 °F 86.7 °F 75.0 °F 82% 30.20 in 10.0 mi West 3.5 mph - N/A   Clear
9:53 PM 79.0 °F - 73.9 °F 84% 30.22 in 10.0 mi West 3.5 mph - N/A   Clear
10:53 PM 75.9 °F - 73.0 °F 91% 30.22 in 9.0 mi Calm Calm - N/A   Clear
11:53 PM 75.0 °F - 73.0 °F 94% 30.21 in 9.0 mi SSW 3.5 mph - N/A   Clear